This demonstration page uses our WeatherBlox Daily Observations layout. Learn more.

Left ArrowRight Arrow

39.92423, -83.80882

Hourly Observations for March 1, 2017

Temp ( °F °C ) Dew Point ( °F °C ) Humidity (%) Winds ( mph kmh ) Pressure ( in mb ) Visibility ( mi km ) Precip ( " mm )
12:56 am 00:56 Cloudy with Light Rain 61 16.1 59 15 93 93 S 13 20 29.72 1007 10 16.0934 0 0.0254
1:36 am 01:36 Cloudy with Light Thunderstorms 61 16 59 15 94 94 S 12 19 29.65 1004 10 16.0934 0 0.0254
1:51 am 01:51 Cloudy with Heavy Thunderstorms 61 16 59 15 94 94 SW 14 22 29.68 1005 4 6.43736 0.22 5.588
1:56 am 01:56 Cloudy with Heavy Thunderstorms 61 16.1 59 15 93 93 SW 20 31 29.74 1007 4 6.43736 0.28 7.112
2:03 am 02:03 Cloudy with Heavy Thunderstorms 61 16 59 15 94 94 SW 20 31 29.68 1005 4 6.43736 0.11 2.794
2:07 am 02:07 Cloudy with Heavy Thunderstorms 61 16 59 15 94 94 SW 20 31 29.68 1005 4 6.43736 0.15 3.81
2:14 am 02:14 Cloudy with Thunderstorms 61 16 59 15 94 94 SSW 16 26 29.68 1005 5 8.0467 0.18 4.572
2:35 am 02:35 Cloudy with Nearby Thunderstorms 61 16 57 14 88 88 SSW 12 19 29.62 1003 8 12.87472 0.25 6.35
2:56 am 02:56 Cloudy with Light Rain 60 15.6 57 13.9 90 90 SSW 13 20 29.64 1004 10 16.0934 0.28 7.112
3:18 am 03:18 Mostly Cloudy with Light Rain 59 15 55 13 88 88 SW 14 22 29.59 1002 10 16.0934 0.01 0.254
3:56 am 03:56 Mostly Cloudy with Light Rain 58 14.4 55 12.8 90 90 SW 17 28 29.6 1002 10 16.0934 0.01 0.254
4:14 am 04:14 Cloudy with Light Rain 59 15 55 13 88 88 SSW 16 26 29.53 1000 10 16.0934 0.01 0.254
4:56 am 04:56 Cloudy 60 15.6 56 13.3 86 86 SSW 14 22 29.56 1001 10 16.0934 0.01 0.254
5:37 am 05:37 Mostly Cloudy with Heavy Thunderstorms 57 14 54 12 88 88 NW 26 43 29.59 1002 4 6.43736 0.17 4.318
5:47 am 05:47 Cloudy with Heavy Thunderstorms 54 12 52 11 94 94 NNW 14 22 29.62 1003 8 12.87472 0.24 6.096
5:56 am 05:56 Cloudy with Light Thunderstorms 54 12.2 51 10.6 90 90 NNW 8 13 29.62 1003 10 16.0934 0.26 6.604
6:09 am 06:09 Cloudy with Light Rain 54 12 52 11 94 94 NW 9 15 29.62 1003 10 16.0934 0.01 0.254
6:54 am 06:54 Cloudy with Nearby Thunderstorms 52 11 52 11 100 100 Calm 29.59 1002 10 16.0934 0.02 0.508
6:56 am 06:56 Cloudy with Nearby Thunderstorms 52 11.1 51 10.6 97 97 Calm 29.6 1002 10 16.0934 0.02 0.508
7:09 am 07:09 Cloudy with Light Rain 52 11 52 11 100 100 Calm 29.59 1002 8 12.87472 0.02 0.508
7:19 am 07:19 Cloudy with Nearby Thunderstorms 52 11 52 11 100 100 W 9 15 29.62 1003 10 16.0934 0.05 1.27
7:56 am 07:56 Cloudy with Rain 53 11.7 52 11.1 96 96 WSW 8 13 29.63 1004 10 16.0934 0.14 3.556
8:25 am 08:25 Cloudy with Light Rain 52 11 52 11 100 100 SW 12 19 29.65 1004 9 14.48406 0.05 1.27
8:34 am 08:34 Cloudy with Light Rain 52 11 52 11 100 100 SW 12 19 29.65 1004 10 16.0934 0.06 1.524
8:56 am 08:56 Cloudy with Rain 52 11.1 52 11.1 100 100 SW 13 20 29.67 1005 10 16.0934 0.1 2.54
9:05 am 09:05 Cloudy with Light Rain 52 11 52 11 100 100 SSW 12 19 29.68 1005 10 16.0934 0.02 0.508
9:56 am 09:56 Mostly Cloudy 52 11.1 50 10 93 93 S 10 17 29.57 1001 10 16.0934 0.06 1.524
10:56 am 10:56 Mostly Sunny 53 11.7 50 10 89 89 SSW 20 31 29.55 1001 10 16.0934 0 0
11:56 am 11:56 Mostly Cloudy 57 13.9 51 10.6 81 81 WSW 20 31 29.57 1001 10 16.0934 0 0
12:56 pm 12:56 Cloudy 57 13.9 50 10 78 78 WSW 24 39 29.56 1001 10 16.0934 0 0
1:56 pm 13:56 Cloudy 57 13.9 50 10 78 78 WSW 25 41 29.57 1001 10 16.0934 0 0
2:56 pm 14:56 Cloudy 54 12.2 46 7.8 75 75 W 26 43 29.6 1002 10 16.0934 0 0
3:26 pm 15:26 Cloudy 52 11 45 7 77 77 W 25 41 29.62 1003 10 16.0934 0 0
3:35 pm 15:35 Cloudy 52 11 43 6 72 72 WNW 33 54 29.62 1003 10 16.0934 0 0
3:56 pm 15:56 Cloudy 50 10 42 5.6 74 74 W 24 39 29.66 1004 10 16.0934 0 0
4:56 pm 16:56 Cloudy 47 8.3 40 4.4 77 77 W 24 39 29.7 1006 10 16.0934 0 0
5:56 pm 17:56 Cloudy 45 7.2 37 2.8 74 74 W 23 37 29.74 1007 10 16.0934 0 0.0254
6:56 pm 18:56 Cloudy 43 6.1 32 0 65 65 W 23 37 29.78 1009 10 16.0934 0 0
7:56 pm 19:56 Cloudy 42 5.6 33 0.6 71 71 WSW 30 48 29.8 1009 10 16.0934 0 0
8:56 pm 20:56 Cloudy 40 4.4 28 -2.2 63 63 W 39 63 29.85 1011 10 16.0934 0 0
9:56 pm 21:56 Cloudy 38 3.3 28 -2.2 68 68 WNW 28 44 29.91 1013 10 16.0934 0 0
10:30 pm 22:30 Cloudy 37 3 27 -3 65 65 W 33 54 29.94 1014 10 16.0934 0 0
10:42 pm 22:42 Cloudy 36 2 27 -3 70 70 W 29 46 29.97 1015 10 16.0934 0 0
10:56 pm 22:56 Cloudy 36 2.2 26 -3.3 67 67 W 30 48 29.94 1014 10 16.0934 0 0
11:19 pm 23:19 Cloudy 36 2 27 -3 70 70 W 30 48 30 1016 10 16.0934 0 0
11:56 pm 23:56 Cloudy 35 1.7 25 -3.9 67 67 WNW 36 57 29.97 1015 10 16.0934 0 0.0254

Powered by AerisWeather